Location: Gleizolles
(44.4833°N, 6.7667°E)
Time: 15:41:19
(UTC+00:00)

Explorer 7 - Pass Details

Date: 16 June 2024
Orbit: 465 x 619 km, 50.3° (Epoch: 12 July)

Event Time Altitude Azimuth Distance (km) Brightness Sun altitude
Rises 12:37:43 0° 229° (SW) 2,618 10.6 65.2°
Reaches altitude 10° 12:39:59 10° 226° (SW) 1,709 9.9 64.9°
Maximum altitude 12:43:46 57° 147° (SSE) 577 8.1 64.5°
Drops below altitude 10° 12:47:25 10° 68° (ENE) 1,649 9.1 64.1°
Sets 12:49:34 0° 64° (ENE) 2,515 9.9 63.8°
